Location: Newark
(45.7667°N, 11.5167°E)
Time: 14:35:53
(UTC+00:00)

Envisat - Pass Details

Date: 28 January 2020
Orbit: 764 x 766 km, 98.1° (Epoch: 28 February)

Event Time Altitude Azimuth Distance (km) Brightness Sun altitude
Rises 04:21:05 0° 35° (NE) 3,242 6.7 -24.4°
Reaches altitude 10° 04:25:35 10° 72° (ENE) 2,307 6.4 -23.6°
Maximum altitude 04:26:46 11° 86° (E) 2,253 6.5 -23.4°
Drops below altitude 10° 04:27:57 10° 99° (E) 2,302 6.6 -23.2°
Sets 04:32:25 0° 137° (SE) 3,220 6.9 -22.4°
